Lid_Strength_Index
4 4 4 4 4 4 4 4 3 3 3 3 3 3 3 3 2 2 1 1 1 1 0 0 0 -0 1 1 1 2 3 3 5 4 3 2 2 2 2 2 2 2 3
5 6 6 7 6 6 5 6 5 5 5 5 5 4 4 3 2 2 2 1 1 1 1 1 1 1 1 1 2 2 3 3 4 5 3 4 3 3 2 3 3 3 3
7 7 7 8 7 7 6 6 5 5 5 5 5 4 4 3 3 3 3 3 2 2 2 2 2 2 2 2 2 3 3 4 4 5 5 4 4 4 4 4 4 3 3
8 8 8 8 8 7 6 6 5 5 5 5 4 4 4 4 4 4 4 3 2 2 2 2 2 2 2 2 3 3 4 5 5 7 7 5 5 3 3 5 6 4 4
8 9 9 8 7 7 7 6 6 6 6 5 5 5 5 5 5 5 4 4 3 3 2 3 2 2 3 3 3 4 4 5 5 6 6 5 5 5 4 3 5 5 4
9 9 9 8 8 8 7 7 6 6 6 6 5 5 5 5 7 7 6 4 3 3 3 3 2 3 3 4 5 5 5 4 4 4 5 6 5 4 4 5 6 6 7
9 9 9 8 8 8 7 7 7 7 6 5 5 5 5 4 7 8 7 5 4 3 3 3 3 3 4 3 4 4 4 5 6 5 6 5 5 5 5 6 7 7 6
10 9 9 8 8 8 7 7 7 6 6 6 6 6 5 5 7 8 7 4 3 3 3 3 3 3 3 4 4 3 4 4 3 5 6 6 6 5 5 6 6 6 6
10 10 9 9 9 8 8 7 6 6 7 8 7 6 6 5 7 8 7 5 4 4 3 3 4 3 5 7 8 8 8 7 6 7 7 7 8 8 7 6 7 7 8
10 9 9 9 8 8 7 7 7 7 7 7 7 5 6 5 7 8 7 6 6 5 4 4 5 6 9 10 8 8 9 8 8 7 6 7 8 7 8 7 7 8 8
9 8 8 8 7 7 7 7 7 7 7 7 7 6 7 8 7 9 9 8 8 9 8 7 6 8 10 10 11 9 9 8 8 8 7 7 6 5 5 6 7 7 7
8 8 8 8 8 8 8 8 8 9 10 10 9 9 8 9 9 9 10 10 9 9 8 7 6 9 10 11 10 10 11 9 6 6 8 8 7 7 6 6 6 6 5
8 8 9 8 8 8 9 9 10 11 11 11 11 12 11 9 9 9 10 10 8 7 5 7 9 10 10 10 10 11 9 6 6 6 5 6 6 6 5 5 5 6 5
10 9 9 9 9 9 9 11 11 12 13 13 13 12 11 10 11 10 10 7 7 6 7 7 8 10 11 10 10 9 7 6 2 3 4 3 3 4 4 4 5 6 6
10 11 10 10 9 11 11 12 13 12 12 13 12 12 12 13 12 12 11 8 10 9 8 8 10 12 12 12 11 10 8 7 6 2 2 3 3 4 4 3 3 4 5
10 11 11 11 12 12 13 13 12 12 11 12 12 13 12 12 12 12 12 12 12 12 8 10 12 13 13 14 13 11 10 9 8 5 2 2 2 5 3 3 3 4 3
11 11 11 12 13 13 12 12 14 13 11 12 13 13 13 13 13 13 12 12 12 10 10 11 13 14 14 14 13 13 12 11 8 5 2 2 2 2 4 3 3 4 4
10 11 11 11 12 13 13 13 14 15 14 14 13 13 13 13 13 13 13 12 12 10 10 12 14 14 15 15 15 14 13 11 10 7 3 2 2 3 3 3 3 4 5
10 10 10 12 12 13 13 14 14 15 14 14 14 14 14 13 13 14 13 13 13 12 11 12 13 15 15 15 15 14 13 12 10 9 6 3 2 3 5 5 6 10 8
10 12 12 12 12 14 14 15 15 16 15 15 15 16 15 14 14 15 15 14 14 14 13 11 11 14 15 16 16 15 14 14 12 10 8 4 4 5 5 6 7 8 9
10 11 13 12 13 14 15 15 16 16 16 16 16 15 15 15 15 16 16 16 15 15 14 12 11 12 14 16 16 16 15 15 14 13 10 4 5 5 6 6 7 8 8
11 11 12 13 14 15 15 14 15 16 16 16 15 15 16 13 14 16 16 16 16 15 15 15 12 11 12 13 15 16 17 16 15 14 11 7 4 4 3 4 5 6 7
11 12 12 13 14 15 15 15 16 16 15 16 16 15 15 16 15 14 15 15 15 16 15 15 14 13 12 12 13 14 16 17 15 14 11 9 6 4 3 4 4 6 8
12 12 13 13 14 14 14 15 15 16 15 14 14 14 14 15 16 15 14 14 14 15 15 16 15 15 13 13 12 12 14 15 14 14 11 9 8 7 5 4 4 4 5
12 12 13 13 13 14 14 14 15 15 15 15 15 14 14 14 13 14 14 14 13 13 14 15 15 14 16 15 14 13 14 15 13 15 9 9 9 8 7 5 4 3 3
12 13 13 13 13 13 13 14 14 14 14 14 14 14 14 14 13 13 13 14 13 13 13 13 14 15 15 16 16 15 15 15 13 13 8 9 10 9 8 7 6 4 4